Terminal Aerodrome Forecast
Issued by NWS Greer, SC

Home | Current Version | Previous Version | Text Only | Print | Product List | Glossary On
Versions: 1 2 3 4 5 6 7 8 9 10 11 12 13 14 15 16 17 18 19 20 21 22 23 24 25 26 27 28 29 30 31 32 33 34 35 36 37 38 39 40 41 42 43 44 45 46 47 48 49 50
000
FTUS42 KGSP 260200 AAB
TAFAVL
TAF AMD
KAVL 260249Z 2603/2624 00000KT P6SM SCT025 BKN035
     FM260600 00000KT 4SM BR FEW010 SCT035
      TEMPO 2608/2612 2SM BR BKN007
     FM261300 32003KT P6SM SCT015
     FM261700 34006KT P6SM SCT035=

USA.gov is the U.S. government's official web portal to all federal, state and local government web resources and services.